SBI7520 UTAA-LHBP

Flight info

Callsign SBI7520
Flight time 4h 48m
Altitude 36000
Route UTAA N0448F360 MAM29D MAMED B 449 DUKAN L850 ADEKI N644 ROLIN UN644 KARDE UL851 KUGOS ROMOK L851 ADINA PILAT OBCAS BUKAN UVERA KEZAL KEZA2H NICRA BP865 BP864 RW31R LHBP
Aircraft B738/M-SDGIWZ/S

Departure

Time 2026-04-24 23:07
Airport Ashgabat International Airport (UTAA)

Arrival

Time 2026-04-25 03:56
Airport Budapest Liszt Ferenc International Airport (LHBP)
Time Latitude Longitude Altitude Speed Heading
2026-04-24 22:58 37.96723 58.37335 699 ft 0 kts 127°
2026-04-24 23:03 37.96725 58.37331 699 ft 1 kts 127°
2026-04-24 23:03 37.96738 58.37310 699 ft 4 kts 127°
2026-04-24 23:03 37.96762 58.37283 699 ft 5 kts 170°
2026-04-24 23:03 37.96785 58.37292 699 ft 1 kts 220°
2026-04-24 23:04 37.96779 58.37286 699 ft 3 kts 220°
2026-04-24 23:04 37.96745 58.37251 699 ft 8 kts 218°
2026-04-24 23:04 37.96685 58.37259 699 ft 12 kts 133°
2026-04-24 23:04 37.96627 58.37357 699 ft 15 kts 114°
2026-04-24 23:05 37.96690 58.37464 699 ft 18 kts 37°
2026-04-24 23:05 37.96786 58.37537 699 ft 15 kts 356°
2026-04-24 23:05 37.96881 58.37500 699 ft 13 kts 341°
2026-04-24 23:05 37.96972 58.37462 699 ft 13 kts 342°
2026-04-24 23:06 37.97068 58.37418 699 ft 16 kts 329°
2026-04-24 23:06 37.97165 58.37326 699 ft 17 kts 324°
2026-04-24 23:06 37.97263 58.37306 699 ft 13 kts 18°
2026-04-24 23:06 37.97365 58.37243 699 ft 37 kts 300°
2026-04-24 23:07 37.97607 58.36688 699 ft 105 kts 298°
2026-04-24 23:07 37.98067 58.35656 699 ft 161 kts 299°
2026-04-24 23:07 37.98680 58.34265 806 ft 195 kts 298°
2026-04-24 23:07 37.99355 58.32730 1323 ft 205 kts 298°
2026-04-24 23:08 38.00027 58.31207 2155 ft 197 kts 297°
2026-04-24 23:08 38.00720 58.29630 2491 ft 212 kts 297°
2026-04-24 23:08 38.01484 58.27890 2712 ft 234 kts 297°
2026-04-24 23:08 38.02340 58.26123 3244 ft 242 kts 307°
2026-04-24 23:09 38.03524 58.24609 3786 ft 248 kts 324°
2026-04-24 23:09 38.04996 58.23461 4411 ft 251 kts 326°
2026-04-24 23:09 38.06447 58.22164 4973 ft 259 kts 321°
2026-04-24 23:09 38.07896 58.20756 5575 ft 269 kts 321°
2026-04-24 23:10 38.09375 58.19294 6238 ft 276 kts 320°
2026-04-24 23:10 38.10902 58.17768 6954 ft 280 kts 320°
2026-04-24 23:10 38.12415 58.16246 7648 ft 284 kts 319°
2026-04-24 23:10 38.13963 58.14685 8365 ft 286 kts 319°
2026-04-24 23:11 38.15528 58.13105 9064 ft 288 kts 319°
2026-04-24 23:11 38.17099 58.11518 9749 ft 291 kts 319°
2026-04-24 23:11 38.18674 58.09927 10328 ft 296 kts 319°
2026-04-24 23:11 38.20359 58.08222 10413 ft 320 kts 319°
2026-04-24 23:12 38.22146 58.06421 10609 ft 337 kts 319°
2026-04-24 23:12 38.24032 58.04523 10682 ft 357 kts 320°
2026-04-24 23:12 38.25993 58.02552 11213 ft 362 kts 320°
2026-04-24 23:12 38.27992 58.00541 11613 ft 370 kts 320°
2026-04-24 23:13 38.29987 57.98530 12280 ft 369 kts 319°
2026-04-24 23:13 38.32006 57.96493 12731 ft 374 kts 319°
2026-04-24 23:13 38.34045 57.94437 13308 ft 375 kts 319°
2026-04-24 23:13 38.36082 57.92382 13797 ft 378 kts 319°
2026-04-24 23:14 38.38137 57.90308 14267 ft 380 kts 319°
2026-04-24 23:14 38.40214 57.88208 14772 ft 382 kts 319°
2026-04-24 23:14 38.42289 57.86109 15217 ft 384 kts 319°
2026-04-24 23:14 38.44375 57.84001 15665 ft 387 kts 319°
2026-04-24 23:15 38.46492 57.81863 16101 ft 389 kts 319°
2026-04-24 23:15 38.48598 57.79738 16517 ft 391 kts 319°
2026-04-24 23:15 38.50731 57.77585 16926 ft 393 kts 319°
2026-04-24 23:15 38.52885 57.75411 17329 ft 395 kts 319°
2026-04-24 23:16 38.55046 57.73231 17715 ft 397 kts 319°
2026-04-24 23:16 38.57187 57.71071 18062 ft 399 kts 319°
2026-04-24 23:16 38.59357 57.68857 18469 ft 399 kts 316°
2026-04-24 23:16 38.61179 57.66201 18760 ft 397 kts 299°
2026-04-24 23:17 38.62490 57.63135 19288 ft 392 kts 294°
2026-04-24 23:17 38.63553 57.59935 19454 ft 397 kts 289°
2026-04-24 23:17 38.64491 57.56614 19896 ft 395 kts 288°
2026-04-24 23:17 38.65451 57.53299 20133 ft 399 kts 289°
2026-04-24 23:18 38.66416 57.50003 20500 ft 399 kts 289°
2026-04-24 23:18 38.67374 57.46692 20795 ft 401 kts 289°
2026-04-24 23:18 38.68337 57.43335 21095 ft 402 kts 289°
2026-04-24 23:18 38.69299 57.39976 21414 ft 403 kts 289°
2026-04-24 23:19 38.70262 57.36606 21685 ft 405 kts 289°
2026-04-24 23:19 38.71233 57.33200 21983 ft 405 kts 288°
2026-04-24 23:19 38.72194 57.29820 22254 ft 407 kts 288°
2026-04-24 23:19 38.73158 57.26423 22509 ft 409 kts 288°
2026-04-24 23:20 38.74122 57.23019 22769 ft 410 kts 288°
2026-04-24 23:20 38.75095 57.19581 23028 ft 411 kts 288°
2026-04-24 23:20 38.76068 57.16137 23254 ft 413 kts 288°
2026-04-24 23:20 38.77038 57.12698 23518 ft 413 kts 288°
2026-04-24 23:21 38.78017 57.09224 23733 ft 415 kts 288°
2026-04-24 23:21 38.78998 57.05735 24009 ft 415 kts 288°
2026-04-24 23:21 38.79964 57.02294 24234 ft 416 kts 288°
2026-04-24 23:21 38.80938 56.98821 24470 ft 416 kts 288°
2026-04-24 23:22 38.81917 56.95329 24700 ft 417 kts 288°
2026-04-24 23:22 38.82899 56.91817 24905 ft 418 kts 288°
2026-04-24 23:22 38.83867 56.88352 25159 ft 417 kts 288°
2026-04-24 23:22 38.84844 56.84851 25312 ft 419 kts 288°
2026-04-24 23:23 38.85829 56.81315 25495 ft 420 kts 288°
2026-04-24 23:23 38.86811 56.77784 25717 ft 420 kts 288°
2026-04-24 23:23 38.87782 56.74288 25837 ft 422 kts 288°
2026-04-24 23:23 38.88774 56.70715 26027 ft 422 kts 288°
2026-04-24 23:24 38.89752 56.67183 26203 ft 423 kts 288°
2026-04-24 23:24 38.90739 56.63617 26365 ft 423 kts 288°
2026-04-24 23:24 38.91721 56.60061 26504 ft 425 kts 288°
2026-04-24 23:24 38.92699 56.56518 26657 ft 425 kts 288°
2026-04-24 23:25 38.93682 56.52950 26806 ft 426 kts 288°
2026-04-24 23:25 38.94664 56.49381 26955 ft 426 kts 288°
2026-04-24 23:25 38.95650 56.45795 27105 ft 427 kts 288°
2026-04-24 23:25 38.96638 56.42193 27223 ft 428 kts 288°
2026-04-24 23:26 38.97627 56.38585 27364 ft 428 kts 287°
2026-04-24 23:26 38.98621 56.34952 27467 ft 429 kts 287°
2026-04-24 23:26 38.99606 56.31348 27635 ft 429 kts 287°
2026-04-24 23:26 39.00560 56.27737 27752 ft 429 kts 285°
2026-04-24 23:27 39.01402 56.24084 27878 ft 429 kts 284°
2026-04-24 23:27 39.02221 56.20373 28022 ft 429 kts 284°
2026-04-24 23:27 39.03050 56.16711 28118 ft 431 kts 284°
2026-04-24 23:27 39.03897 56.13013 28332 ft 429 kts 284°
2026-04-24 23:28 39.04729 56.09367 28532 ft 427 kts 284°
2026-04-24 23:28 39.05560 56.05712 28742 ft 425 kts 284°
2026-04-24 23:28 39.06392 56.02053 28870 ft 425 kts 284°
2026-04-24 23:28 39.07211 55.98451 29066 ft 424 kts 284°
2026-04-24 23:29 39.08041 55.94794 29189 ft 424 kts 284°
2026-04-24 23:29 39.08860 55.91184 29367 ft 423 kts 284°
2026-04-24 23:29 39.09687 55.87533 29556 ft 421 kts 284°
2026-04-24 23:30 39.11331 55.80284 29717 ft 423 kts 284°
2026-04-24 23:30 39.12151 55.76666 29835 ft 423 kts 284°
2026-04-24 23:30 39.12970 55.73037 29946 ft 423 kts 284°
2026-04-24 23:31 39.14597 55.65785 30159 ft 423 kts 284°
2026-04-24 23:31 39.15406 55.62152 30265 ft 423 kts 284°
2026-04-24 23:31 39.16205 55.58536 30368 ft 422 kts 284°
2026-04-24 23:31 39.17007 55.54916 30475 ft 422 kts 284°
2026-04-24 23:32 39.17821 55.51271 30577 ft 422 kts 284°
2026-04-24 23:32 39.19453 55.43994 30811 ft 421 kts 284°
2026-04-24 23:32 39.20246 55.40439 30966 ft 419 kts 284°
2026-04-24 23:33 39.21054 55.36794 31059 ft 419 kts 284°
2026-04-24 23:33 39.22640 55.29557 31254 ft 418 kts 283°
2026-04-24 23:33 39.23420 55.25964 31355 ft 418 kts 283°
2026-04-24 23:34 39.24205 55.22359 31469 ft 418 kts 283°
2026-04-24 23:34 39.24988 55.18769 31584 ft 417 kts 283°
2026-04-24 23:34 39.25765 55.15203 31670 ft 417 kts 283°
2026-04-24 23:35 39.27338 55.07989 31851 ft 417 kts 284°
2026-04-24 23:35 39.28892 55.00809 32014 ft 417 kts 283°
2026-04-24 23:35 39.29674 54.97188 32130 ft 416 kts 283°
2026-04-24 23:36 39.30444 54.93627 32227 ft 416 kts 284°
2026-04-24 23:36 39.31995 54.86473 32407 ft 415 kts 283°
2026-04-24 23:37 39.33536 54.79299 32575 ft 415 kts 283°
2026-04-24 23:37 39.35838 54.68552 32829 ft 414 kts 283°
2026-04-24 23:38 39.37376 54.61433 33007 ft 413 kts 284°
2026-04-24 23:38 39.38924 54.54336 33194 ft 411 kts 283°
2026-04-24 23:39 39.40451 54.47213 33370 ft 410 kts 283°
2026-04-24 23:39 39.41949 54.40146 33535 ft 408 kts 283°
2026-04-24 23:40 39.43442 54.33103 33699 ft 407 kts 283°
2026-04-24 23:40 39.44939 54.26044 33893 ft 406 kts 283°
2026-04-24 23:41 39.46411 54.19042 34043 ft 405 kts 283°
2026-04-24 23:41 39.47879 54.12010 34194 ft 404 kts 283°
2026-04-24 23:42 39.49340 54.05007 34349 ft 403 kts 283°
2026-04-24 23:42 39.50771 53.98061 34510 ft 402 kts 282°
2026-04-24 23:43 39.52166 53.91048 34648 ft 401 kts 282°
2026-04-24 23:43 39.53547 53.84116 34784 ft 400 kts 282°
2026-04-24 23:44 39.54962 53.77152 34916 ft 399 kts 283°
2026-04-24 23:44 39.56409 53.70166 35051 ft 398 kts 283°
2026-04-24 23:45 39.57798 53.63272 35177 ft 397 kts 282°
2026-04-24 23:45 39.59152 53.56359 35300 ft 396 kts 282°
2026-04-24 23:46 39.60534 53.49490 35428 ft 395 kts 283°
2026-04-24 23:46 39.61934 53.42615 35552 ft 393 kts 283°
2026-04-24 23:47 39.63273 53.35935 35667 ft 392 kts 282°
2026-04-24 23:47 39.64629 53.29103 35800 ft 391 kts 282°
2026-04-24 23:48 39.65308 53.25680 35909 ft 389 kts 282°
2026-04-24 23:48 39.65976 53.22304 35910 ft 391 kts 282°
2026-04-24 23:48 39.67323 53.15475 35911 ft 393 kts 282°
2026-04-24 23:49 39.68656 53.08591 35912 ft 395 kts 282°
2026-04-24 23:49 39.69966 53.01691 35911 ft 397 kts 282°
2026-04-24 23:50 39.71307 52.94716 35914 ft 398 kts 282°
2026-04-24 23:50 39.72647 52.87761 35909 ft 400 kts 282°
2026-04-24 23:51 39.74023 52.80750 35911 ft 402 kts 282°
2026-04-24 23:51 39.75439 52.73709 35914 ft 403 kts 283°
2026-04-24 23:52 39.76848 52.66673 35911 ft 404 kts 282°
2026-04-24 23:52 39.78218 52.59621 35912 ft 405 kts 282°
2026-04-24 23:53 39.79583 52.52516 35910 ft 406 kts 282°
2026-04-24 23:53 39.80973 52.45425 35913 ft 407 kts 283°
2026-04-24 23:54 39.82397 52.38271 35913 ft 408 kts 283°
2026-04-24 23:54 39.83803 52.31148 35911 ft 408 kts 282°
2026-04-24 23:55 39.85151 52.24014 35913 ft 409 kts 282°
2026-04-24 23:55 39.86502 52.16864 35912 ft 409 kts 282°
2026-04-24 23:56 39.87893 52.09685 35912 ft 407 kts 282°
2026-04-24 23:56 39.89284 52.02579 35913 ft 408 kts 282°
2026-04-24 23:57 39.90658 51.95400 35912 ft 409 kts 282°
2026-04-24 23:57 39.92015 51.88240 35912 ft 408 kts 282°
2026-04-24 23:58 39.93359 51.81097 35911 ft 407 kts 282°
2026-04-24 23:58 39.94699 51.73961 35912 ft 408 kts 282°
2026-04-24 23:59 39.96051 51.66795 35914 ft 408 kts 282°
2026-04-24 23:59 39.97366 51.59615 35910 ft 407 kts 282°
2026-04-25 00:00 39.98707 51.52465 35917 ft 408 kts 284°
2026-04-25 00:00 40.00790 51.45531 35929 ft 411 kts 291°
2026-04-25 00:01 40.03059 51.38718 35935 ft 412 kts 290°
2026-04-25 00:01 40.05304 51.31831 35938 ft 413 kts 290°
2026-04-25 00:02 40.07613 51.25002 35937 ft 411 kts 291°
2026-04-25 00:02 40.09895 51.18200 35942 ft 411 kts 290°
2026-04-25 00:03 40.12162 51.11347 35936 ft 410 kts 290°
2026-04-25 00:03 40.14409 51.04524 35942 ft 409 kts 290°
2026-04-25 00:04 40.16668 50.97749 35936 ft 406 kts 291°
2026-04-25 00:04 40.18940 50.91060 35939 ft 404 kts 291°
2026-04-25 00:05 40.21147 50.84351 35939 ft 402 kts 291°
2026-04-25 00:05 40.23376 50.77661 35940 ft 402 kts 291°
2026-04-25 00:06 40.25607 50.71025 35940 ft 401 kts 291°
2026-04-25 00:06 40.27839 50.64331 35937 ft 402 kts 291°
2026-04-25 00:07 40.30088 50.57586 35939 ft 403 kts 291°
2026-04-25 00:07 40.32333 50.50917 35910 ft 402 kts 291°
2026-04-25 00:08 40.34530 50.44214 35911 ft 402 kts 290°
2026-04-25 00:08 40.36695 50.37446 35913 ft 402 kts 290°
2026-04-25 00:09 40.38871 50.30705 35913 ft 402 kts 290°
2026-04-25 00:09 40.41062 50.23976 35908 ft 402 kts 290°
2026-04-25 00:10 40.43223 50.17269 35910 ft 402 kts 290°
2026-04-25 00:10 40.45409 50.10516 35913 ft 402 kts 290°
2026-04-25 00:11 40.47232 50.04905 35913 ft 401 kts 291°
2026-04-25 00:11 40.49860 49.97142 35909 ft 401 kts 291°
2026-04-25 00:12 40.52151 49.90456 35911 ft 402 kts 291°
2026-04-25 00:12 40.54415 49.83726 35911 ft 403 kts 291°
2026-04-25 00:13 40.56626 49.76995 35914 ft 402 kts 290°
2026-04-25 00:13 40.58821 49.70245 35911 ft 402 kts 291°
2026-04-25 00:14 40.61021 49.63532 35913 ft 401 kts 291°
2026-04-25 00:14 40.63263 49.56800 35912 ft 402 kts 291°
2026-04-25 00:15 40.65347 49.50018 35913 ft 401 kts 289°
2026-04-25 00:15 40.67370 49.43184 35911 ft 402 kts 289°
2026-04-25 00:16 40.69430 49.36400 35910 ft 401 kts 289°
2026-04-25 00:16 40.71478 49.29565 35913 ft 401 kts 288°
2026-04-25 00:17 40.73487 49.22713 35912 ft 401 kts 287°
2026-04-25 00:17 40.75178 49.15720 35913 ft 400 kts 285°
2026-04-25 00:18 40.76859 49.08791 35909 ft 396 kts 286°
2026-04-25 00:18 40.78574 49.01960 35910 ft 393 kts 286°
2026-04-25 00:19 40.80263 48.95126 35912 ft 392 kts 286°
2026-04-25 00:19 40.81919 48.88288 35914 ft 392 kts 286°
2026-04-25 00:20 40.83564 48.81405 35913 ft 393 kts 286°
2026-04-25 00:20 40.85245 48.74593 35914 ft 394 kts 287°
2026-04-25 00:21 40.86963 48.67708 35912 ft 394 kts 286°
2026-04-25 00:21 40.88622 48.60851 35910 ft 392 kts 286°
2026-04-25 00:22 40.90244 48.53975 35912 ft 393 kts 286°
2026-04-25 00:22 40.91937 48.47098 35915 ft 394 kts 287°
2026-04-25 00:23 40.93623 48.40245 35993 ft 393 kts 286°
2026-04-25 00:23 40.95238 48.33390 35994 ft 394 kts 285°
2026-04-25 00:24 40.96859 48.26454 35991 ft 394 kts 285°
2026-04-25 00:24 40.98493 48.19599 35993 ft 393 kts 286°
2026-04-25 00:25 41.00187 48.12726 35993 ft 392 kts 286°
2026-04-25 00:25 41.01836 48.05896 35992 ft 392 kts 285°
2026-04-25 00:26 41.03492 47.98989 35994 ft 393 kts 285°
2026-04-25 00:26 41.05103 47.92091 36002 ft 393 kts 284°
2026-04-25 00:27 41.06644 47.85224 36012 ft 390 kts 283°
2026-04-25 00:27 41.08093 47.78290 36027 ft 391 kts 283°
2026-04-25 00:28 41.09555 47.71379 36039 ft 392 kts 283°
2026-04-25 00:28 41.11045 47.64422 36045 ft 392 kts 283°
2026-04-25 00:29 41.12532 47.57516 36046 ft 391 kts 283°
2026-04-25 00:29 41.14011 47.50594 36047 ft 392 kts 283°
2026-04-25 00:30 41.15487 47.43653 36047 ft 391 kts 283°
2026-04-25 00:30 41.16934 47.36752 36048 ft 391 kts 283°
2026-04-25 00:31 41.18359 47.29784 36045 ft 391 kts 282°
2026-04-25 00:31 41.19788 47.22839 36047 ft 391 kts 282°
2026-04-25 00:32 41.21230 47.15884 36046 ft 390 kts 283°
2026-04-25 00:32 41.22417 47.10107 36048 ft 390 kts 282°
2026-04-25 00:33 41.24081 47.02020 36047 ft 391 kts 282°
2026-04-25 00:33 41.25503 46.95089 36047 ft 388 kts 282°
2026-04-25 00:34 41.26905 46.88257 36046 ft 380 kts 282°
2026-04-25 00:34 41.28286 46.81541 36046 ft 376 kts 282°
2026-04-25 00:35 41.29631 46.74820 36046 ft 377 kts 281°
2026-04-25 00:35 41.30689 46.68058 36045 ft 376 kts 277°
2026-04-25 00:36 41.31582 46.61208 36046 ft 376 kts 278°
2026-04-25 00:36 41.32517 46.54382 36046 ft 375 kts 278°
2026-04-25 00:37 41.33450 46.47577 36047 ft 376 kts 278°
2026-04-25 00:37 41.34383 46.40733 36044 ft 376 kts 278°
2026-04-25 00:38 41.35390 46.33936 36047 ft 377 kts 279°
2026-04-25 00:38 41.36360 46.27080 36047 ft 376 kts 278°
2026-04-25 00:39 41.37313 46.20274 36047 ft 376 kts 277°
2026-04-25 00:39 41.38188 46.13385 36047 ft 376 kts 278°
2026-04-25 00:40 41.39070 46.06587 36046 ft 376 kts 278°
2026-04-25 00:40 41.39985 45.99717 36048 ft 376 kts 278°
2026-04-25 00:41 41.40900 45.92911 36046 ft 375 kts 277°
2026-04-25 00:41 41.41806 45.86075 36046 ft 376 kts 278°
2026-04-25 00:42 41.42726 45.79202 36051 ft 376 kts 277°
2026-04-25 00:42 41.43604 45.72372 36059 ft 377 kts 277°
2026-04-25 00:43 41.44560 45.65509 36067 ft 378 kts 279°
2026-04-25 00:43 41.45514 45.58673 36074 ft 375 kts 278°
2026-04-25 00:44 41.46436 45.51865 36072 ft 374 kts 278°
2026-04-25 00:44 41.47325 45.45039 36076 ft 375 kts 278°
2026-04-25 00:45 41.48211 45.38172 36071 ft 375 kts 277°
2026-04-25 00:45 41.48863 45.31272 36074 ft 375 kts 273°
2026-04-25 00:46 41.49305 45.24369 36074 ft 376 kts 274°
2026-04-25 00:47 41.50227 45.13986 36073 ft 376 kts 275°
2026-04-25 00:47 41.50811 45.07082 36074 ft 375 kts 274°
2026-04-25 00:48 41.51386 45.00165 36073 ft 377 kts 274°
2026-04-25 00:48 41.51935 44.93225 36074 ft 380 kts 274°
2026-04-25 00:49 41.52490 44.86185 36073 ft 382 kts 273°
2026-04-25 00:49 41.53043 44.79156 36074 ft 384 kts 273°
2026-04-25 00:50 41.53525 44.72047 36075 ft 385 kts 272°
2026-04-25 00:50 41.54028 44.64938 36074 ft 386 kts 273°
2026-04-25 00:51 41.54570 44.57845 36071 ft 385 kts 274°
2026-04-25 00:51 41.55165 44.50761 36074 ft 385 kts 274°
2026-04-25 00:52 41.55721 44.43669 36073 ft 385 kts 273°
2026-04-25 00:52 41.56266 44.36616 36073 ft 384 kts 273°
2026-04-25 00:53 41.56800 44.29489 36073 ft 385 kts 273°
2026-04-25 00:53 41.57268 44.22404 36072 ft 384 kts 272°
2026-04-25 00:54 41.57745 44.15344 36074 ft 384 kts 272°
2026-04-25 00:54 41.58322 44.08237 36075 ft 385 kts 274°
2026-04-25 00:55 41.58937 44.01197 36074 ft 385 kts 274°
2026-04-25 00:55 41.59506 43.94116 36073 ft 384 kts 272°
2026-04-25 00:56 41.59987 43.86993 36074 ft 385 kts 272°
2026-04-25 00:56 41.60480 43.79880 36074 ft 384 kts 273°
2026-04-25 00:57 41.60997 43.72817 36074 ft 384 kts 273°
2026-04-25 00:57 41.61549 43.65719 36077 ft 385 kts 274°
2026-04-25 00:58 41.62132 43.58645 36078 ft 386 kts 273°
2026-04-25 00:58 41.62619 43.51512 36077 ft 385 kts 272°
2026-04-25 00:59 41.63106 43.44408 36079 ft 384 kts 273°
2026-04-25 00:59 41.63615 43.37330 36085 ft 384 kts 273°
2026-04-25 01:00 41.64120 43.30212 36091 ft 386 kts 272°
2026-04-25 01:00 41.64606 43.23082 36096 ft 384 kts 272°
2026-04-25 01:01 41.65114 43.16025 36101 ft 384 kts 273°
2026-04-25 01:01 41.65609 43.08909 36102 ft 383 kts 273°
2026-04-25 01:02 41.66091 43.01870 36101 ft 380 kts 273°
2026-04-25 01:02 41.66576 42.94876 36101 ft 379 kts 274°
2026-04-25 01:03 41.67108 42.87892 36101 ft 379 kts 274°
2026-04-25 01:03 41.67624 42.80883 36101 ft 379 kts 273°
2026-04-25 01:04 41.68092 42.73896 36101 ft 379 kts 273°
2026-04-25 01:04 41.68507 42.66876 36101 ft 378 kts 272°
2026-04-25 01:05 41.68948 42.59866 36100 ft 379 kts 273°
2026-04-25 01:05 41.69387 42.52888 36101 ft 379 kts 273°
2026-04-25 01:06 41.69833 42.45859 36101 ft 379 kts 273°
2026-04-25 01:06 41.70268 42.38850 36100 ft 378 kts 273°
2026-04-25 01:07 41.70753 42.31852 36101 ft 379 kts 273°
2026-04-25 01:07 41.71231 42.24825 36101 ft 379 kts 272°
2026-04-25 01:08 41.71669 42.17822 36101 ft 379 kts 272°
2026-04-25 01:08 41.72115 42.10821 36102 ft 379 kts 272°
2026-04-25 01:09 41.72493 42.03796 36100 ft 380 kts 272°
2026-04-25 01:09 41.72850 41.96796 36100 ft 378 kts 272°
2026-04-25 01:10 41.73267 41.89768 36101 ft 379 kts 273°
2026-04-25 01:10 41.73729 41.82764 36101 ft 379 kts 273°
2026-04-25 01:11 41.74149 41.75744 36101 ft 378 kts 273°
2026-04-25 01:11 41.74568 41.68749 36101 ft 380 kts 273°
2026-04-25 01:12 41.74979 41.61714 36101 ft 379 kts 272°
2026-04-25 01:12 41.75366 41.54679 36101 ft 379 kts 272°
2026-04-25 01:13 41.75766 41.47639 36100 ft 379 kts 272°
2026-04-25 01:13 41.76145 41.40656 36101 ft 378 kts 272°
2026-04-25 01:14 41.76474 41.33585 36102 ft 379 kts 271°
2026-04-25 01:14 41.76802 41.26570 36100 ft 379 kts 272°
2026-04-25 01:15 41.77146 41.19532 36101 ft 379 kts 271°
2026-04-25 01:15 41.77506 41.12541 36101 ft 378 kts 272°
2026-04-25 01:16 41.77892 41.05518 36100 ft 379 kts 272°
2026-04-25 01:16 41.78243 40.98500 36101 ft 380 kts 271°
2026-04-25 01:17 41.78583 40.91405 36101 ft 383 kts 271°
2026-04-25 01:17 41.78931 40.84253 36101 ft 386 kts 271°
2026-04-25 01:18 41.79287 40.77069 36101 ft 389 kts 270°
2026-04-25 01:18 41.79645 40.69834 36100 ft 391 kts 271°
2026-04-25 01:19 41.80078 40.62588 36101 ft 391 kts 271°
2026-04-25 01:19 41.80378 40.55345 36100 ft 391 kts 269°
2026-04-25 01:20 41.80650 40.48053 36099 ft 391 kts 270°
2026-04-25 01:20 41.80944 40.40810 36101 ft 390 kts 270°
2026-04-25 01:21 41.81288 40.33581 36102 ft 391 kts 270°
2026-04-25 01:21 41.81631 40.26282 36100 ft 391 kts 270°
2026-04-25 01:22 41.81932 40.19053 36101 ft 391 kts 269°
2026-04-25 01:22 41.82159 40.11773 36101 ft 391 kts 269°
2026-04-25 01:23 41.82428 40.04553 36100 ft 389 kts 269°
2026-04-25 01:23 41.82700 39.97331 36102 ft 390 kts 270°
2026-04-25 01:24 41.82982 39.90044 36099 ft 391 kts 269°
2026-04-25 01:24 41.83239 39.82800 36100 ft 390 kts 270°
2026-04-25 01:25 41.83513 39.75574 36103 ft 389 kts 269°
2026-04-25 01:25 41.83770 39.68332 36101 ft 391 kts 270°
2026-04-25 01:26 41.84043 39.61048 36100 ft 390 kts 269°
2026-04-25 01:26 41.84314 39.53802 36102 ft 391 kts 270°
2026-04-25 01:27 41.84635 39.46566 36101 ft 390 kts 270°
2026-04-25 01:27 41.84889 39.39299 36100 ft 389 kts 269°
2026-04-25 01:28 41.85240 39.28443 36101 ft 391 kts 270°
2026-04-25 01:28 41.85529 39.21198 36102 ft 390 kts 269°
2026-04-25 01:29 41.85754 39.13948 36100 ft 390 kts 269°
2026-04-25 01:29 41.85984 39.06666 36101 ft 391 kts 269°
2026-04-25 01:30 41.86225 38.99405 36101 ft 395 kts 269°
2026-04-25 01:30 41.86443 38.92043 36101 ft 398 kts 269°
2026-04-25 01:31 41.86652 38.84594 36102 ft 402 kts 269°
2026-04-25 01:31 41.86855 38.77079 36102 ft 404 kts 268°
2026-04-25 01:32 41.87001 38.69590 36099 ft 404 kts 268°
2026-04-25 01:32 41.87174 38.62040 36100 ft 406 kts 269°
2026-04-25 01:33 41.87367 38.54483 36100 ft 404 kts 269°
2026-04-25 01:33 41.87547 38.47021 36101 ft 404 kts 268°
2026-04-25 01:34 41.87740 38.39476 36101 ft 406 kts 269°
2026-04-25 01:34 41.87979 38.31942 36100 ft 405 kts 269°
2026-04-25 01:35 41.88203 38.24425 36101 ft 403 kts 268°
2026-04-25 01:35 41.88392 38.16917 36101 ft 406 kts 268°
2026-04-25 01:36 41.88573 38.09330 36101 ft 406 kts 268°
2026-04-25 01:36 41.88750 38.01833 36100 ft 404 kts 268°
2026-04-25 01:37 41.88916 37.94308 36100 ft 404 kts 268°
2026-04-25 01:37 41.89017 37.86754 36102 ft 405 kts 267°
2026-04-25 01:38 41.89125 37.79262 36099 ft 404 kts 268°
2026-04-25 01:38 41.89316 37.71721 36101 ft 404 kts 269°
2026-04-25 01:39 41.89479 37.64201 36101 ft 405 kts 268°
2026-04-25 01:39 41.89573 37.56673 36100 ft 404 kts 268°
2026-04-25 01:40 41.89665 37.49190 36100 ft 402 kts 268°
2026-04-25 01:40 41.89771 37.41668 36102 ft 403 kts 268°
2026-04-25 01:41 41.89894 37.34171 36100 ft 404 kts 268°
2026-04-25 01:41 41.89995 37.26620 36101 ft 403 kts 267°
2026-04-25 01:42 41.90118 37.19117 36101 ft 404 kts 268°
2026-04-25 01:42 41.90323 37.11594 36101 ft 405 kts 269°
2026-04-25 01:43 41.90919 37.04041 36099 ft 413 kts 281°
2026-04-25 01:43 41.92948 36.96788 36101 ft 419 kts 288°
2026-04-25 01:44 41.95139 36.89552 36100 ft 418 kts 288°
2026-04-25 01:44 41.97330 36.82362 36101 ft 418 kts 288°
2026-04-25 01:45 41.99570 36.75140 36101 ft 420 kts 289°
2026-04-25 01:45 42.01818 36.67905 36101 ft 419 kts 289°
2026-04-25 01:46 42.04031 36.60717 36101 ft 419 kts 288°
2026-04-25 01:46 42.06229 36.53505 36101 ft 418 kts 288°
2026-04-25 01:47 42.08454 36.46231 36100 ft 420 kts 289°
2026-04-25 01:47 42.10683 36.39007 36101 ft 418 kts 289°
2026-04-25 01:48 42.12885 36.31815 36101 ft 418 kts 288°
2026-04-25 01:48 42.15095 36.24594 36101 ft 419 kts 288°
2026-04-25 01:49 42.17310 36.17310 36094 ft 419 kts 288°
2026-04-25 01:49 42.19500 36.10077 36085 ft 418 kts 288°
2026-04-25 01:50 42.21699 36.02856 36078 ft 419 kts 288°
2026-04-25 01:50 42.23874 35.95584 36074 ft 418 kts 288°
2026-04-25 01:51 42.26026 35.88311 36074 ft 419 kts 288°
2026-04-25 01:51 42.28195 35.81009 36074 ft 419 kts 288°
2026-04-25 01:52 42.30385 35.73735 36073 ft 419 kts 288°
2026-04-25 01:52 42.32576 35.66475 36074 ft 419 kts 288°
2026-04-25 01:53 42.34744 35.59203 36074 ft 419 kts 288°
2026-04-25 01:53 42.36898 35.51896 36074 ft 419 kts 288°
2026-04-25 01:54 42.39034 35.44624 36073 ft 418 kts 288°
2026-04-25 01:54 42.41185 35.37288 36075 ft 418 kts 288°
2026-04-25 01:55 42.43324 35.29998 36074 ft 418 kts 287°
2026-04-25 01:55 42.45462 35.22735 36074 ft 419 kts 287°
2026-04-25 01:56 42.47610 35.15425 36073 ft 417 kts 287°
2026-04-25 01:56 42.49739 35.08146 36075 ft 418 kts 287°
2026-04-25 01:57 42.52942 34.97161 36075 ft 418 kts 287°
2026-04-25 01:58 42.55062 34.89834 36074 ft 420 kts 287°
2026-04-25 01:58 42.57186 34.82445 36072 ft 421 kts 287°
2026-04-25 01:59 42.59271 34.75089 36073 ft 420 kts 287°
2026-04-25 01:59 42.61388 34.67706 36075 ft 420 kts 287°
2026-04-25 02:00 42.63510 34.60361 36074 ft 421 kts 287°
2026-04-25 02:00 42.65617 34.52959 36073 ft 420 kts 287°
2026-04-25 02:01 42.67697 34.45568 36074 ft 420 kts 287°
2026-04-25 02:01 42.69772 34.38140 36075 ft 421 kts 287°
2026-04-25 02:02 42.71858 34.30780 36073 ft 420 kts 287°
2026-04-25 02:02 42.73983 34.23419 36074 ft 420 kts 287°
2026-04-25 02:03 42.76059 34.15948 36073 ft 421 kts 286°
2026-04-25 02:03 42.78102 34.08537 36074 ft 419 kts 287°
2026-04-25 02:04 42.80329 34.01208 36075 ft 421 kts 289°
2026-04-25 02:04 42.82623 33.93884 36074 ft 422 kts 288°
2026-04-25 02:05 42.84868 33.86553 36074 ft 421 kts 288°
2026-04-25 02:05 42.87089 33.79201 36073 ft 420 kts 288°
2026-04-25 02:06 42.89317 33.71802 36073 ft 420 kts 288°
2026-04-25 02:06 42.91530 33.64474 36074 ft 419 kts 289°
2026-04-25 02:07 42.93745 33.57194 36073 ft 415 kts 289°
2026-04-25 02:07 42.95942 33.49955 36075 ft 412 kts 289°
2026-04-25 02:08 42.98081 33.42735 36074 ft 411 kts 289°
2026-04-25 02:08 43.00236 33.35551 36072 ft 407 kts 290°
2026-04-25 02:09 43.02376 33.28439 36074 ft 405 kts 289°
2026-04-25 02:09 43.04477 33.21365 36073 ft 404 kts 289°
2026-04-25 02:10 43.06570 33.14262 36075 ft 404 kts 289°
2026-04-25 02:10 43.08682 33.07153 36074 ft 403 kts 290°
2026-04-25 02:11 43.10792 33.00039 36074 ft 406 kts 290°
2026-04-25 02:11 43.12918 32.92830 36074 ft 409 kts 290°
2026-04-25 02:12 43.15016 32.85650 36074 ft 410 kts 290°
2026-04-25 02:12 43.17123 32.78423 36074 ft 410 kts 290°
2026-04-25 02:13 43.19238 32.71193 36073 ft 409 kts 290°
2026-04-25 02:13 43.21334 32.63971 36074 ft 410 kts 290°
2026-04-25 02:14 43.23431 32.56702 36074 ft 410 kts 290°
2026-04-25 02:14 43.25527 32.49445 36074 ft 409 kts 290°
2026-04-25 02:15 43.27618 32.42256 36075 ft 410 kts 290°
2026-04-25 02:15 43.29715 32.34966 36074 ft 411 kts 290°
2026-04-25 02:16 43.31777 32.27721 36072 ft 409 kts 290°
2026-04-25 02:16 43.33842 32.20457 36073 ft 409 kts 290°
2026-04-25 02:17 43.35925 32.13182 36074 ft 410 kts 290°
2026-04-25 02:17 43.38003 32.05924 36074 ft 410 kts 290°
2026-04-25 02:18 43.40080 31.98656 36074 ft 409 kts 290°
2026-04-25 02:18 43.42140 31.91371 36074 ft 410 kts 290°
2026-04-25 02:19 43.44181 31.84127 36073 ft 409 kts 290°
2026-04-25 02:19 43.46224 31.76841 36075 ft 410 kts 290°
2026-04-25 02:20 43.48264 31.69511 36073 ft 410 kts 290°
2026-04-25 02:20 43.50296 31.62199 36064 ft 409 kts 290°
2026-04-25 02:21 43.52345 31.54885 36047 ft 410 kts 290°
2026-04-25 02:21 43.54377 31.47599 36029 ft 410 kts 290°
2026-04-25 02:22 43.56391 31.40286 36019 ft 409 kts 289°
2026-04-25 02:22 43.58408 31.32960 36020 ft 409 kts 289°
2026-04-25 02:23 43.60440 31.25676 36020 ft 411 kts 289°
2026-04-25 02:23 43.62458 31.18292 36019 ft 409 kts 289°
2026-04-25 02:24 43.64442 31.10964 36020 ft 413 kts 289°
2026-04-25 02:24 43.66474 31.03529 36020 ft 417 kts 289°
2026-04-25 02:25 43.68518 30.96000 36020 ft 422 kts 289°
2026-04-25 02:25 43.70515 30.88384 36020 ft 425 kts 288°
2026-04-25 02:26 43.72514 30.80701 36020 ft 425 kts 288°
2026-04-25 02:26 43.74503 30.73056 36019 ft 424 kts 289°
2026-04-25 02:27 43.76488 30.65400 36020 ft 424 kts 289°
2026-04-25 02:27 43.78483 30.57683 36019 ft 424 kts 289°
2026-04-25 02:28 43.80727 30.50166 36019 ft 426 kts 297°
2026-04-25 02:28 43.83737 30.43121 36020 ft 427 kts 299°
2026-04-25 02:29 43.86756 30.36092 36020 ft 427 kts 299°
2026-04-25 02:29 43.89812 30.29060 36020 ft 427 kts 299°
2026-04-25 02:30 43.92882 30.22016 36020 ft 427 kts 299°
2026-04-25 02:30 43.95938 30.15001 36020 ft 427 kts 299°
2026-04-25 02:31 43.99003 30.07962 36020 ft 427 kts 299°
2026-04-25 02:31 44.02059 30.00927 36020 ft 426 kts 299°
2026-04-25 02:32 44.05119 29.93872 36020 ft 427 kts 299°
2026-04-25 02:32 44.08159 29.86846 36019 ft 427 kts 299°
2026-04-25 02:33 44.11226 29.79742 36020 ft 427 kts 299°
2026-04-25 02:33 44.14266 29.72684 36020 ft 427 kts 299°
2026-04-25 02:34 44.17300 29.65621 36020 ft 427 kts 299°
2026-04-25 02:34 44.20325 29.58562 36020 ft 427 kts 299°
2026-04-25 02:35 44.23366 29.51449 36019 ft 426 kts 299°
2026-04-25 02:35 44.26377 29.44391 36020 ft 426 kts 299°
2026-04-25 02:36 44.29404 29.37276 36020 ft 426 kts 299°
2026-04-25 02:36 44.32418 29.30172 36019 ft 426 kts 298°
2026-04-25 02:37 44.35428 29.23063 36020 ft 426 kts 298°
2026-04-25 02:37 44.38422 29.15973 36020 ft 426 kts 298°
2026-04-25 02:38 44.41423 29.08847 36020 ft 426 kts 298°
2026-04-25 02:38 44.44403 29.01757 36020 ft 426 kts 298°
2026-04-25 02:39 44.47427 28.94560 36020 ft 429 kts 298°
2026-04-25 02:39 44.50456 28.87343 36020 ft 433 kts 298°
2026-04-25 02:40 44.53488 28.80081 36019 ft 434 kts 298°
2026-04-25 02:40 44.56507 28.72793 36019 ft 437 kts 298°
2026-04-25 02:41 44.59536 28.65397 36018 ft 435 kts 298°
2026-04-25 02:41 44.62523 28.58098 36020 ft 434 kts 298°
2026-04-25 02:42 44.65559 28.50719 36022 ft 436 kts 298°
2026-04-25 02:42 44.68584 28.43356 36022 ft 436 kts 298°
2026-04-25 02:43 44.71594 28.36047 36021 ft 434 kts 299°
2026-04-25 02:43 44.74647 28.28752 36021 ft 434 kts 298°
2026-04-25 02:44 44.77684 28.21383 36020 ft 436 kts 297°
2026-04-25 02:44 44.80690 28.14053 36020 ft 434 kts 297°
2026-04-25 02:45 44.83644 28.06622 36026 ft 433 kts 295°
2026-04-25 02:45 44.86219 27.98951 36031 ft 436 kts 293°
2026-04-25 02:46 44.88858 27.91295 36034 ft 435 kts 294°
2026-04-25 02:46 44.91524 27.83685 36039 ft 434 kts 294°
2026-04-25 02:47 44.94146 27.76048 36038 ft 434 kts 294°
2026-04-25 02:47 44.96756 27.68429 36032 ft 434 kts 294°
2026-04-25 02:48 44.99368 27.60766 36026 ft 431 kts 294°
2026-04-25 02:48 45.01959 27.53231 36030 ft 428 kts 295°
2026-04-25 02:49 45.04583 27.45695 36033 ft 427 kts 294°
2026-04-25 02:49 45.07128 27.38131 36037 ft 423 kts 294°
2026-04-25 02:50 45.09636 27.30708 36044 ft 420 kts 294°
2026-04-25 02:50 45.12195 27.23334 36046 ft 417 kts 294°
2026-04-25 02:51 45.14731 27.15959 36044 ft 418 kts 294°
2026-04-25 02:51 45.17223 27.08565 36047 ft 418 kts 294°
2026-04-25 02:52 45.19743 27.01092 36049 ft 420 kts 294°
2026-04-25 02:52 45.22267 26.93598 36047 ft 425 kts 293°
2026-04-25 02:53 45.24831 26.86031 36048 ft 429 kts 292°
2026-04-25 02:53 45.27378 26.78433 36049 ft 429 kts 292°
2026-04-25 02:54 45.29905 26.70834 36045 ft 426 kts 293°
2026-04-25 02:54 45.32422 26.63249 36047 ft 425 kts 292°
2026-04-25 02:55 45.34935 26.55667 36048 ft 427 kts 292°
2026-04-25 02:55 45.37419 26.47974 36048 ft 427 kts 292°
2026-04-25 02:56 45.39857 26.40369 36046 ft 425 kts 292°
2026-04-25 02:56 45.42342 26.32694 36050 ft 428 kts 292°
2026-04-25 02:57 45.44837 26.25004 36047 ft 428 kts 292°
2026-04-25 02:57 45.47330 26.17386 36046 ft 424 kts 292°
2026-04-25 02:58 45.49822 26.09776 36048 ft 427 kts 292°
2026-04-25 02:58 45.52301 26.02124 36045 ft 427 kts 291°
2026-04-25 02:59 45.54767 25.94439 36045 ft 426 kts 292°
2026-04-25 02:59 45.57244 25.86779 36046 ft 428 kts 292°
2026-04-25 03:00 45.59766 25.79106 36049 ft 428 kts 293°
2026-04-25 03:00 45.62376 25.71528 36045 ft 426 kts 294°
2026-04-25 03:01 45.65004 25.63995 36046 ft 428 kts 294°
2026-04-25 03:01 45.67626 25.56374 36047 ft 426 kts 293°
2026-04-25 03:02 45.70191 25.48724 36044 ft 426 kts 293°
2026-04-25 03:02 45.72699 25.41054 36045 ft 427 kts 293°
2026-04-25 03:03 45.75263 25.33423 36049 ft 428 kts 293°
2026-04-25 03:03 45.77856 25.25801 36048 ft 425 kts 292°
2026-04-25 03:04 45.80402 25.18168 36044 ft 427 kts 292°
2026-04-25 03:04 45.82949 25.10508 36043 ft 426 kts 292°
2026-04-25 03:05 45.86734 24.99046 36039 ft 426 kts 292°
2026-04-25 03:05 45.89264 24.91340 36040 ft 426 kts 292°
2026-04-25 03:06 45.91790 24.83689 36047 ft 425 kts 292°
2026-04-25 03:06 45.94304 24.76027 36047 ft 427 kts 292°
2026-04-25 03:07 45.96806 24.68294 36042 ft 426 kts 292°
2026-04-25 03:07 45.99270 24.60599 36041 ft 426 kts 292°
2026-04-25 03:08 46.01754 24.52900 36039 ft 427 kts 292°
2026-04-25 03:08 46.04252 24.45139 36038 ft 426 kts 292°
2026-04-25 03:09 46.06723 24.37447 36035 ft 425 kts 292°
2026-04-25 03:09 46.09204 24.29720 36028 ft 425 kts 291°
2026-04-25 03:10 46.11665 24.21978 36026 ft 427 kts 291°
2026-04-25 03:10 46.14137 24.14222 36026 ft 426 kts 291°
2026-04-25 03:11 46.16601 24.06508 36023 ft 425 kts 292°
2026-04-25 03:11 46.19094 23.98821 36019 ft 426 kts 292°
2026-04-25 03:12 46.21590 23.91032 36020 ft 426 kts 292°
2026-04-25 03:12 46.24059 23.83323 36020 ft 425 kts 292°
2026-04-25 03:13 46.26509 23.75599 36020 ft 426 kts 292°
2026-04-25 03:13 46.28948 23.67805 36021 ft 426 kts 291°
2026-04-25 03:14 46.31347 23.59982 36020 ft 426 kts 291°
2026-04-25 03:14 46.33774 23.52184 36019 ft 425 kts 291°
2026-04-25 03:15 46.36204 23.44429 36020 ft 424 kts 291°
2026-04-25 03:15 46.38644 23.36653 36022 ft 426 kts 292°
2026-04-25 03:16 46.41053 23.28844 36020 ft 427 kts 290°
2026-04-25 03:16 46.43433 23.20979 36019 ft 425 kts 290°
2026-04-25 03:17 46.45814 23.13225 36020 ft 425 kts 291°
2026-04-25 03:17 46.48237 23.05402 36017 ft 426 kts 291°
2026-04-25 03:18 46.50647 22.97605 36018 ft 423 kts 292°
2026-04-25 03:18 46.52999 22.89836 36019 ft 416 kts 293°
2026-04-25 03:19 46.55225 22.82086 36020 ft 419 kts 293°
2026-04-25 03:19 46.57429 22.74208 36016 ft 424 kts 294°
2026-04-25 03:20 46.59674 22.66325 36005 ft 424 kts 294°
2026-04-25 03:20 46.61926 22.58439 35997 ft 423 kts 294°
2026-04-25 03:21 46.64154 22.50548 35993 ft 423 kts 294°
2026-04-25 03:21 46.66342 22.42625 35994 ft 424 kts 294°
2026-04-25 03:22 46.68544 22.34662 35993 ft 424 kts 293°
2026-04-25 03:22 46.70785 22.26727 35992 ft 423 kts 294°
2026-04-25 03:23 46.73000 22.18864 35993 ft 424 kts 293°
2026-04-25 03:23 46.75209 22.10906 35992 ft 424 kts 293°
2026-04-25 03:24 46.77409 22.02930 35993 ft 424 kts 293°
2026-04-25 03:24 46.79568 21.95103 35992 ft 423 kts 293°
2026-04-25 03:25 46.81714 21.87137 35992 ft 423 kts 293°
2026-04-25 03:25 46.83880 21.79159 35993 ft 425 kts 293°
2026-04-25 03:26 46.86079 21.71188 35993 ft 422 kts 294°
2026-04-25 03:26 46.88248 21.63275 35993 ft 423 kts 293°
2026-04-25 03:27 46.90393 21.55283 35993 ft 424 kts 293°
2026-04-25 03:27 46.92513 21.47288 35993 ft 422 kts 294°
2026-04-25 03:28 46.94670 21.39305 35993 ft 423 kts 294°
2026-04-25 03:28 46.96841 21.31318 35995 ft 423 kts 293°
2026-04-25 03:29 46.98947 21.23294 35997 ft 423 kts 293°
2026-04-25 03:29 47.01069 21.15249 35997 ft 423 kts 294°
2026-04-25 03:30 47.03182 21.07236 35994 ft 422 kts 294°
2026-04-25 03:30 47.04224 21.03277 35697 ft 417 kts 294°
2026-04-25 03:30 47.05277 20.99299 35020 ft 416 kts 294°
2026-04-25 03:31 47.06320 20.95374 34291 ft 415 kts 295°
2026-04-25 03:31 47.07354 20.91501 33549 ft 415 kts 295°
2026-04-25 03:31 47.08408 20.87548 32804 ft 413 kts 295°
2026-04-25 03:31 47.09433 20.83668 32272 ft 407 kts 294°
2026-04-25 03:32 47.10429 20.79851 31721 ft 402 kts 294°
2026-04-25 03:32 47.11420 20.76041 31169 ft 396 kts 294°
2026-04-25 03:32 47.12401 20.72285 30622 ft 392 kts 294°
2026-04-25 03:32 47.13368 20.68578 30080 ft 387 kts 294°
2026-04-25 03:33 47.14311 20.64965 29549 ft 383 kts 294°
2026-04-25 03:33 47.15252 20.61342 29016 ft 378 kts 294°
2026-04-25 03:33 47.16186 20.57729 28486 ft 380 kts 294°
2026-04-25 03:33 47.17124 20.54113 27922 ft 379 kts 293°
2026-04-25 03:34 47.18042 20.50534 27377 ft 375 kts 292°
2026-04-25 03:34 47.18752 20.46842 26895 ft 372 kts 284°
2026-04-25 03:34 47.19033 20.43081 26372 ft 371 kts 274°
2026-04-25 03:34 47.18843 20.39348 25844 ft 370 kts 265°
2026-04-25 03:35 47.18248 20.35649 25301 ft 371 kts 256°
2026-04-25 03:35 47.17505 20.32101 24766 ft 365 kts 262°
2026-04-25 03:35 47.17387 20.28448 24268 ft 355 kts 278°
2026-04-25 03:35 47.17681 20.24843 23755 ft 360 kts 279°
2026-04-25 03:36 47.18098 20.21233 23230 ft 354 kts 287°
2026-04-25 03:36 47.19036 20.17944 22734 ft 347 kts 302°
2026-04-25 03:36 47.20393 20.15035 22239 ft 343 kts 307°
2026-04-25 03:36 47.21927 20.12427 21746 ft 339 kts 314°
2026-04-25 03:37 47.23591 20.09996 21263 ft 340 kts 314°
2026-04-25 03:37 47.25245 20.07479 20765 ft 342 kts 313°
2026-04-25 03:37 47.26846 20.04977 20273 ft 338 kts 313°
2026-04-25 03:37 47.28457 20.02460 19781 ft 334 kts 313°
2026-04-25 03:38 47.30019 20.00016 19302 ft 330 kts 312°
2026-04-25 03:38 47.31581 19.97558 18821 ft 327 kts 312°
2026-04-25 03:38 47.33139 19.95099 18344 ft 332 kts 312°
2026-04-25 03:38 47.34703 19.92629 17853 ft 329 kts 312°
2026-04-25 03:39 47.36235 19.90204 17376 ft 326 kts 312°
2026-04-25 03:39 47.37775 19.87763 16899 ft 322 kts 312°
2026-04-25 03:39 47.39299 19.85344 16425 ft 319 kts 312°
2026-04-25 03:39 47.40776 19.82972 15964 ft 318 kts 311°
2026-04-25 03:40 47.42272 19.80517 15488 ft 321 kts 311°
2026-04-25 03:40 47.43757 19.78086 15013 ft 318 kts 311°
2026-04-25 03:40 47.45216 19.75700 14547 ft 315 kts 311°
2026-04-25 03:40 47.46673 19.73315 14081 ft 312 kts 311°
2026-04-25 03:41 47.48118 19.70948 13618 ft 309 kts 311°
2026-04-25 03:41 47.49539 19.68619 13164 ft 308 kts 311°
2026-04-25 03:41 47.50980 19.66254 12698 ft 311 kts 311°
2026-04-25 03:41 47.52428 19.63877 12226 ft 308 kts 311°
2026-04-25 03:42 47.53846 19.61547 11765 ft 305 kts 311°
2026-04-25 03:42 47.55253 19.59234 11349 ft 301 kts 311°
2026-04-25 03:42 47.56647 19.56940 11100 ft 298 kts 311°
2026-04-25 03:42 47.58034 19.54655 10986 ft 305 kts 311°
2026-04-25 03:43 47.59439 19.52339 10602 ft 300 kts 311°
2026-04-25 03:43 47.60753 19.50001 10440 ft 286 kts 302°
2026-04-25 03:43 47.61440 19.47335 10298 ft 273 kts 277°
2026-04-25 03:43 47.61308 19.44590 10093 ft 265 kts 256°
2026-04-25 03:44 47.60603 19.42126 9825 ft 262 kts 237°
2026-04-25 03:44 47.59358 19.40196 9522 ft 260 kts 223°
2026-04-25 03:44 47.58012 19.38424 9202 ft 257 kts 225°
2026-04-25 03:44 47.56718 19.36657 8899 ft 254 kts 225°
2026-04-25 03:45 47.55400 19.34907 8599 ft 251 kts 219°
2026-04-25 03:45 47.53875 19.33751 8301 ft 248 kts 195°
2026-04-25 03:45 47.52195 19.33674 8003 ft 244 kts 171°
2026-04-25 03:45 47.50621 19.34500 7705 ft 240 kts 149°
2026-04-25 03:46 47.49389 19.36119 7430 ft 234 kts 132°
2026-04-25 03:46 47.48320 19.37881 7148 ft 229 kts 133°
2026-04-25 03:46 47.47242 19.39609 6872 ft 224 kts 133°
2026-04-25 03:46 47.46202 19.41284 6605 ft 219 kts 133°
2026-04-25 03:47 47.45189 19.42914 6345 ft 215 kts 133°
2026-04-25 03:47 47.44189 19.44523 6073 ft 212 kts 133°
2026-04-25 03:47 47.43198 19.46116 5817 ft 210 kts 133°
2026-04-25 03:47 47.42214 19.47698 5573 ft 210 kts 133°
2026-04-25 03:48 47.41224 19.49289 5331 ft 210 kts 133°
2026-04-25 03:48 47.40243 19.50864 5105 ft 206 kts 133°
2026-04-25 03:48 47.39305 19.52368 4883 ft 195 kts 133°
2026-04-25 03:48 47.38421 19.53785 4672 ft 184 kts 133°
2026-04-25 03:49 47.37558 19.55169 4582 ft 184 kts 133°
2026-04-25 03:49 47.36565 19.56388 4504 ft 185 kts 156°
2026-04-25 03:49 47.35328 19.56729 4392 ft 184 kts 186°
2026-04-25 03:49 47.34117 19.56165 4178 ft 180 kts 214°
2026-04-25 03:50 47.33188 19.54991 4012 ft 178 kts 224°
2026-04-25 03:50 47.32273 19.53748 3806 ft 178 kts 224°
2026-04-25 03:50 47.31367 19.52525 3641 ft 176 kts 224°
2026-04-25 03:50 47.30519 19.51236 3556 ft 175 kts 240°
2026-04-25 03:51 47.30281 19.49542 3467 ft 173 kts 280°
2026-04-25 03:51 47.30859 19.48013 3349 ft 173 kts 311°
2026-04-25 03:51 47.31633 19.46663 3194 ft 173 kts 308°
2026-04-25 03:51 47.32401 19.45314 3018 ft 172 kts 311°
2026-04-25 03:52 47.33200 19.44013 2865 ft 165 kts 311°
2026-04-25 03:52 47.33947 19.42809 2709 ft 159 kts 312°
2026-04-25 03:52 47.34695 19.41607 2569 ft 161 kts 312°
2026-04-25 03:52 47.35456 19.40385 2482 ft 159 kts 312°
2026-04-25 03:53 47.36196 19.39196 2273 ft 155 kts 312°
2026-04-25 03:53 47.36903 19.38061 2118 ft 151 kts 312°
2026-04-25 03:53 47.37616 19.36915 1883 ft 151 kts 312°
2026-04-25 03:53 47.38327 19.35772 1684 ft 151 kts 312°
2026-04-25 03:54 47.39048 19.34620 1516 ft 152 kts 312°
2026-04-25 03:54 47.39761 19.33469 1282 ft 153 kts 311°
2026-04-25 03:54 47.40469 19.32303 1046 ft 152 kts 311°
2026-04-25 03:54 47.41186 19.31167 842 ft 151 kts 313°
2026-04-25 03:55 47.41893 19.30030 633 ft 151 kts 312°
2026-04-25 03:55 47.42604 19.28896 508 ft 145 kts 312°
2026-04-25 03:55 47.43173 19.27984 504 ft 89 kts 312°
2026-04-25 03:55 47.43483 19.27477 504 ft 52 kts 313°
2026-04-25 03:56 47.43647 19.27204 504 ft 30 kts 306°
2026-04-25 03:56 47.43727 19.26979 504 ft 20 kts 286°
2026-04-25 03:56 47.43761 19.26774 504 ft 22 kts 283°
2026-04-25 03:56 47.43798 19.26536 504 ft 18 kts 279°
2026-04-25 03:57 47.43738 19.26400 504 ft 18 kts 221°
2026-04-25 03:57 47.43629 19.26256 504 ft 24 kts 221°
2026-04-25 03:57 47.43555 19.26110 504 ft 14 kts 265°
2026-04-25 03:57 47.43553 19.26038 504 ft 1 kts 268°
2026-04-25 03:58 47.43553 19.26029 504 ft 0 kts 268°